Tracking 28096 objects as of 29-Sep-2023
HD Live streaming from Space Station
objects crossing your sky now

FLOCK 4X 11

Track FLOCK 4X 11 now!
10-day predictions


NORAD ID: 51049
Int'l Code: 2022-002BT
Perigee: 466.0 km
Apogee: 475.0 km
Inclination: 97.4 °
Period: 93.9 minutes
Semi major axis: 6841 km
RCS: Unknown
Launch date: January 13, 2022
Source: United States (US)
Launch site: AIR FORCE EASTERN TEST RANGE (AFETR)
Your satellite tracking list
Your tracking list is empty




NASA's NSSDC Master Catalog

Two Line Element Set (TLE):
1 51049U 22002BT  23271.70968220  .00023356  00000-0  70669-3 0  9994
2 51049  97.4247 340.3451 0006562 199.2276 160.8720 15.34177113 94694
Source of the keplerian elements: AFSPC